Wind_Speed
6 5 5 5 5 5 5 5 6 6 6 6 7 7 7 7 8 8 8 9 9 9 10 11 11 12 13 12 13 14 14 14 15 16 16 17 17 17 17 16 17 17 17
7 6 6 6 6 6 7 7 7 7 7 7 7 8 8 9 9 9 10 10 11 12 12 13 13 13 13 14 14 15 16 16 17 18 18 19 19 19 19 19 18 18 18
7 7 7 7 8 8 8 9 9 9 9 9 9 9 10 10 10 10 11 12 13 13 14 15 14 15 15 15 16 17 17 18 19 19 20 21 21 22 22 21 20 19 19
8 8 8 8 9 9 10 10 10 10 10 10 10 10 11 11 11 12 13 14 14 15 15 16 16 16 16 17 18 19 19 20 21 22 22 22 23 23 23 23 23 22 21
10 10 10 10 10 11 11 12 12 12 12 12 12 12 12 13 13 14 15 15 15 16 16 17 18 18 19 19 19 20 21 22 23 24 24 24 25 25 25 25 24 24 24
13 13 13 12 12 12 12 13 13 14 14 14 14 14 14 14 15 16 17 17 17 18 18 19 19 20 21 21 22 22 23 24 25 26 26 26 26 26 26 26 26 26 25
16 16 15 15 15 15 15 15 15 15 16 16 15 15 16 16 17 18 19 19 19 20 20 21 21 22 23 23 24 24 25 26 27 28 27 27 27 27 27 27 27 27 26
18 17 17 17 17 17 17 17 18 18 18 18 18 18 18 19 19 20 21 21 21 21 22 23 23 24 25 25 26 27 28 28 29 29 29 29 29 29 28 28 28 28 27
20 19 19 19 19 19 19 20 20 20 20 20 20 21 21 21 21 22 22 23 23 23 24 25 25 25 26 27 28 28 29 29 29 29 30 30 30 30 30 30 29 29 28
22 22 21 21 21 21 20 20 21 21 22 23 23 23 23 23 24 25 25 25 25 26 26 27 28 27 28 28 29 30 30 30 30 30 30 30 30 31 31 31 31 30 29
24 23 22 23 23 23 23 23 23 23 24 24 25 25 25 26 27 28 28 28 28 28 29 29 29 30 30 31 31 32 32 31 31 31 31 31 32 32 32 32 32 32 31
24 24 25 25 25 26 26 26 26 26 26 26 26 26 27 28 29 30 30 30 31 31 31 31 31 32 32 33 33 33 33 33 33 33 33 33 33 32 32 33 33 33 33
25 26 27 27 27 27 27 27 28 28 28 28 27 27 28 29 31 31 31 32 34 34 34 34 33 33 34 35 35 35 35 35 35 35 35 34 34 34 34 33 34 34 34
27 28 28 29 29 29 29 30 30 30 29 30 30 30 30 31 32 33 33 34 34 34 34 34 35 35 35 35 36 36 36 37 37 36 36 36 35 35 34 34 34 35 35
29 30 30 30 31 31 31 31 31 31 31 31 31 32 32 33 33 34 35 35 36 35 35 35 34 35 36 36 36 36 37 37 37 37 37 37 37 37 37 36 36 36 36
31 32 32 33 32 32 32 32 32 32 33 33 34 34 34 34 34 35 35 35 36 36 36 36 36 36 37 36 36 37 37 36 37 37 38 38 38 38 37 37 37 37 37
33 33 33 33 33 33 33 33 33 33 34 34 35 35 34 35 35 35 36 36 37 37 37 37 37 37 37 37 37 37 36 37 38 38 38 38 38 38 38 38 38 37 37
34 34 34 34 34 34 34 35 35 35 35 35 35 35 35 35 36 36 37 37 38 38 38 37 37 37 37 37 37 37 38 38 39 39 39 38 38 38 38 38 38 38 37
35 35 36 35 35 35 36 36 36 35 35 35 35 35 36 37 37 37 37 38 38 38 38 38 38 37 36 36 37 38 39 39 39 39 39 38 38 38 38 38 38 37 36
36 36 36 36 37 36 36 36 36 35 35 36 36 36 37 37 37 37 37 37 37 37 38 38 38 37 37 37 37 38 38 38 38 38 38 38 38 38 37 38 38 37 36
36 36 36 36 36 36 36 36 36 36 35 36 36 36 37 37 37 38 37 37 38 38 38 38 37 37 37 37 36 36 36 37 38 38 37 37 37 37 37 37 37 37 36
36 36 36 36 36 36 36 36 36 36 37 37 37 37 38 38 39 38 38 37 38 38 38 38 38 38 37 37 37 37 36 36 37 37 37 37 36 36 36 36 36 36 36
35 36 36 37 36 36 37 37 38 38 38 39 39 39 39 39 39 39 38 38 38 38 38 38 38 37 37 37 37 37 37 37 37 36 37 36 37 37 37 36 36 36 36
36 36 37 37 37 37 37 38 38 38 38 39 39 39 40 40 39 39 39 39 39 39 39 38 37 37 37 38 38 38 38 38 37 37 37 37 37 37 36 36 36 35 36
36 36 36 36 36 37 37 37 37 38 38 38 39 39 39 39 38 38 39 39 39 39 39 38 38 37 37 37 39 39 38 38 37 37 37 37 36 36 35 35 35 35 35
34 34 34 34 35 35 36 36 37 37 38 38 38 37 38 38 38 38 39 40 39 39 39 39 39 38 38 38 39 38 37 37 37 37 36 36 35 35 34 34 34 34 34
Wind_Direction
323 321 314 310 309 311 314 321 329 331 326 319 315 315 312 315 314 314 316 319 321 321 320 318 319 320 322 320 320 322 324 325 324 325 324 324 321 321 317 313 314 314 311
310 311 308 300 296 295 300 305 313 316 318 318 311 309 310 310 310 310 312 312 311 310 311 311 311 313 313 314 315 316 318 318 318 319 320 321 320 318 317 314 312 311 310
302 305 304 300 294 291 294 298 302 303 304 308 307 304 304 306 307 307 307 309 308 308 308 309 307 308 309 310 311 311 313 314 314 314 314 315 315 314 314 312 312 310 308
294 296 298 297 292 288 289 292 294 295 295 298 300 300 300 302 303 302 302 303 306 308 308 306 304 304 305 307 308 308 308 309 310 310 310 309 310 309 309 309 308 308 306
286 287 288 289 290 289 290 291 293 294 293 293 295 297 298 297 298 298 299 300 302 304 306 305 302 302 303 305 306 306 306 305 306 307 307 307 307 306 306 306 306 305 302
284 283 282 283 285 287 289 289 291 292 293 292 291 293 295 296 295 295 296 296 298 299 301 301 300 300 301 302 303 304 305 306 306 305 304 305 305 305 304 304 303 303 302
283 282 281 281 281 284 285 288 290 290 290 291 290 292 294 295 295 293 293 293 295 296 297 297 297 298 299 301 301 302 304 304 304 303 302 302 302 302 302 301 301 301 302
280 281 283 281 280 281 283 286 286 287 287 288 289 290 290 291 292 291 291 291 293 294 295 294 294 295 296 298 299 301 301 302 302 302 301 302 301 299 299 298 298 298 299
277 278 278 280 280 283 285 285 284 285 286 286 286 287 287 288 288 289 288 289 290 291 291 292 293 295 295 296 297 299 299 301 302 301 300 300 301 300 298 296 296 296 297
275 275 276 279 281 282 284 284 283 284 285 285 285 285 285 287 287 287 286 286 287 288 289 289 291 292 293 294 295 297 298 299 299 299 299 299 299 299 298 296 295 294 294
275 275 276 278 279 280 280 282 283 283 283 285 287 286 286 287 288 288 286 286 287 287 288 289 289 290 291 292 293 294 295 297 298 298 298 298 298 298 297 295 294 293 293
274 276 278 279 279 281 281 282 283 284 284 286 287 288 288 287 288 289 290 289 290 289 290 291 291 291 290 290 291 292 294 296 296 296 297 297 298 297 297 294 292 292 292
275 276 277 277 278 279 281 283 284 285 285 285 286 288 290 289 289 289 290 290 291 293 293 291 292 293 293 293 293 292 293 295 296 296 297 297 297 296 295 293 291 291 291
274 276 277 277 278 280 281 283 285 287 287 287 288 288 289 290 290 289 289 290 290 293 293 293 292 294 294 295 294 293 292 292 293 294 295 295 294 294 294 292 290 289 290
274 275 276 277 278 279 281 282 284 285 286 286 287 288 288 289 288 289 290 290 290 290 291 293 293 294 294 294 294 293 292 292 292 292 292 293 292 292 293 292 290 289 289
272 274 276 276 277 279 281 282 282 284 285 286 286 287 287 288 290 291 290 291 292 292 293 294 294 294 295 294 293 293 292 292 292 291 291 290 290 291 291 291 289 288 287
272 274 276 275 276 278 280 281 282 283 284 285 286 288 288 289 291 292 292 292 293 293 293 293 293 294 294 293 293 292 292 292 291 291 290 290 290 290 289 290 289 287 286
274 275 276 276 277 278 279 280 282 283 284 285 286 287 288 289 291 293 293 292 292 292 293 293 293 293 293 292 292 291 291 291 291 290 290 290 289 289 289 289 289 287 285
274 275 277 276 277 277 278 279 282 284 285 286 288 289 290 290 291 291 293 293 293 293 294 294 294 294 293 292 291 291 292 291 290 290 290 290 289 289 289 289 288 287 287
277 276 276 277 277 279 281 282 283 285 287 288 288 289 290 290 290 291 292 293 294 294 295 296 295 294 293 293 292 291 291 292 291 291 290 289 289 289 290 290 291 290 289
277 277 277 278 279 281 282 284 285 287 288 288 289 289 289 290 290 291 292 292 292 292 293 294 294 294 294 294 294 293 291 291 291 291 290 290 290 290 290 291 292 291 289
278 279 279 279 280 282 283 284 285 287 288 289 290 290 290 290 291 291 292 292 291 292 292 293 294 294 294 293 293 293 293 293 292 291 291 291 291 291 292 292 291 290 290
277 278 279 280 281 282 283 284 285 286 287 288 288 289 289 290 290 290 291 291 291 292 292 293 294 295 294 293 292 292 292 293 294 294 293 292 292 291 291 291 290 290 289
277 279 281 281 282 283 284 284 285 286 287 288 288 288 288 288 288 289 289 290 291 291 291 292 293 293 294 294 292 292 292 292 293 294 294 293 293 292 291 290 290 289 289
279 281 282 282 282 283 285 286 287 288 288 289 289 288 287 287 287 288 289 291 291 291 291 292 292 292 293 293 293 294 293 292 292 293 293 293 293 292 290 289 289 289 289
280 282 282 282 283 284 286 287 287 288 288 289 289 289 288 287 287 288 289 290 291 290 290 290 291 291 292 292 292 292 293 292 292 293 294 293 292 291 290 290 289 289 288
Height
5908 5907 5906 5905 5904 5904 5903 5902 5902 5900 5899 5898 5897 5896 5895 5894 5892 5891 5890 5888 5886 5885 5883 5881 5880 5878 5876 5874 5872 5869 5867 5865 5862 5860 5857 5855 5852 5849 5846 5843 5841 5838 5836
5906 5905 5904 5904 5903 5902 5901 5901 5900 5899 5897 5896 5895 5894 5893 5892 5890 5889 5887 5885 5884 5882 5880 5878 5877 5875 5873 5871 5868 5866 5864 5861 5859 5856 5854 5851 5848 5845 5842 5839 5836 5834 5831
5904 5903 5902 5901 5901 5900 5899 5898 5897 5896 5895 5894 5893 5891 5890 5889 5887 5886 5884 5882 5881 5879 5877 5875 5873 5871 5869 5867 5865 5862 5860 5857 5855 5852 5850 5846 5844 5841 5838 5835 5832 5829 5826
5902 5901 5900 5899 5898 5897 5896 5896 5895 5894 5892 5891 5890 5888 5887 5886 5884 5883 5881 5879 5877 5875 5873 5871 5869 5867 5865 5863 5861 5858 5855 5853 5850 5847 5845 5842 5839 5836 5833 5830 5827 5824 5821
5899 5899 5898 5897 5896 5895 5894 5893 5892 5891 5889 5888 5886 5885 5884 5882 5880 5879 5877 5875 5873 5871 5869 5867 5865 5863 5861 5858 5856 5853 5850 5847 5845 5842 5839 5836 5833 5830 5827 5824 5821 5818 5815
5896 5896 5895 5894 5893 5892 5891 5890 5888 5887 5886 5884 5883 5881 5880 5878 5876 5875 5873 5871 5869 5867 5865 5862 5860 5858 5855 5853 5850 5848 5845 5842 5839 5836 5833 5830 5827 5823 5820 5817 5814 5811 5809
5892 5891 5890 5890 5889 5888 5887 5886 5885 5883 5882 5880 5879 5877 5876 5874 5872 5870 5868 5866 5864 5862 5860 5857 5855 5853 5850 5847 5844 5841 5838 5835 5832 5829 5826 5823 5820 5817 5814 5811 5808 5805 5802
5887 5886 5886 5885 5885 5884 5883 5881 5880 5878 5877 5875 5874 5872 5870 5869 5866 5864 5862 5860 5858 5856 5854 5851 5849 5846 5843 5840 5838 5835 5831 5828 5825 5821 5819 5816 5813 5809 5806 5803 5800 5797 5794
5882 5881 5881 5880 5879 5878 5877 5876 5874 5873 5871 5870 5868 5866 5864 5862 5860 5858 5856 5853 5852 5850 5847 5845 5842 5840 5837 5833 5830 5827 5824 5821 5817 5814 5811 5808 5805 5801 5798 5795 5792 5789 5786
5876 5876 5875 5874 5873 5872 5871 5869 5868 5866 5865 5863 5861 5859 5857 5855 5853 5851 5848 5846 5844 5842 5840 5837 5835 5832 5829 5825 5822 5819 5816 5813 5810 5806 5803 5800 5796 5793 5790 5787 5784 5781 5778
5869 5868 5868 5867 5866 5865 5864 5862 5861 5859 5857 5856 5854 5852 5850 5848 5846 5843 5840 5838 5836 5833 5831 5829 5826 5823 5820 5817 5813 5810 5807 5804 5801 5797 5794 5791 5788 5784 5781 5777 5774 5772 5769
5862 5862 5861 5860 5859 5858 5856 5855 5853 5852 5849 5847 5846 5844 5842 5840 5838 5835 5832 5830 5827 5825 5822 5820 5817 5814 5810 5807 5804 5801 5798 5794 5791 5788 5785 5782 5779 5775 5772 5768 5765 5762 5760
5855 5854 5854 5853 5852 5850 5849 5847 5845 5843 5841 5839 5837 5836 5834 5832 5830 5827 5824 5822 5819 5816 5813 5811 5808 5804 5801 5798 5795 5791 5788 5785 5781 5778 5776 5773 5769 5766 5762 5759 5756 5753 5750
5847 5846 5846 5844 5843 5842 5840 5839 5837 5835 5833 5832 5830 5827 5826 5823 5821 5818 5815 5812 5809 5807 5803 5800 5798 5794 5791 5788 5784 5781 5777 5774 5771 5768 5766 5762 5759 5756 5752 5749 5746 5743 5740
5838 5838 5836 5835 5834 5833 5831 5830 5828 5827 5825 5823 5821 5818 5816 5813 5811 5808 5805 5802 5799 5796 5793 5790 5787 5784 5780 5777 5773 5770 5766 5763 5760 5757 5754 5751 5748 5745 5742 5739 5736 5733 5730
5829 5829 5827 5825 5824 5823 5822 5820 5818 5817 5815 5813 5811 5808 5806 5803 5800 5798 5795 5792 5789 5785 5782 5780 5776 5773 5769 5765 5762 5758 5755 5752 5749 5746 5743 5739 5736 5734 5731 5728 5725 5722 5719
5820 5819 5817 5815 5814 5813 5811 5810 5808 5807 5805 5803 5801 5798 5795 5793 5790 5787 5784 5781 5778 5774 5771 5768 5765 5762 5758 5754 5751 5747 5744 5741 5737 5734 5731 5728 5725 5722 5719 5717 5714 5710 5708
5809 5808 5807 5805 5804 5802 5801 5799 5798 5796 5794 5792 5790 5787 5785 5782 5779 5776 5773 5769 5766 5763 5760 5757 5754 5751 5747 5743 5739 5736 5733 5729 5726 5723 5720 5717 5714 5711 5708 5705 5702 5699 5696
5798 5797 5796 5794 5793 5791 5790 5789 5787 5785 5783 5781 5779 5777 5774 5771 5768 5765 5761 5758 5755 5752 5749 5746 5743 5739 5736 5732 5728 5724 5721 5718 5714 5711 5708 5705 5702 5699 5696 5693 5690 5688 5685
5788 5786 5785 5784 5782 5781 5779 5778 5776 5774 5772 5770 5768 5765 5763 5760 5757 5754 5751 5747 5744 5741 5738 5734 5731 5728 5724 5720 5717 5713 5709 5706 5702 5699 5696 5693 5690 5688 5685 5682 5679 5676 5674
5777 5775 5774 5773 5771 5770 5768 5766 5765 5763 5760 5758 5756 5753 5751 5748 5745 5743 5740 5736 5733 5730 5726 5723 5719 5716 5713 5709 5706 5701 5698 5695 5691 5688 5685 5682 5679 5676 5673 5670 5667 5665 5662
5766 5765 5763 5762 5761 5759 5757 5755 5753 5751 5749 5747 5745 5742 5739 5736 5733 5731 5728 5725 5721 5718 5715 5711 5708 5705 5701 5698 5695 5691 5687 5683 5680 5677 5674 5671 5668 5665 5662 5659 5657 5654 5651
5755 5754 5753 5751 5750 5748 5746 5744 5742 5740 5738 5735 5733 5730 5727 5724 5722 5719 5716 5713 5710 5707 5703 5700 5697 5693 5690 5687 5683 5679 5676 5672 5669 5665 5662 5659 5656 5653 5650 5647 5645 5642 5639
5744 5743 5741 5740 5738 5737 5735 5732 5730 5728 5725 5723 5720 5718 5715 5712 5710 5707 5704 5701 5698 5695 5692 5689 5686 5682 5679 5675 5671 5668 5664 5661 5657 5654 5650 5647 5644 5641 5638 5635 5633 5630 5628
5734 5732 5731 5729 5727 5725 5723 5721 5718 5716 5713 5711 5708 5706 5703 5700 5698 5695 5692 5689 5686 5683 5680 5677 5674 5670 5667 5663 5660 5657 5653 5649 5646 5642 5639 5635 5631 5628 5626 5624 5621 5619 5617
5723 5722 5720 5718 5717 5714 5712 5710 5707 5704 5702 5699 5696 5693 5691 5688 5685 5682 5679 5676 5673 5670 5667 5664 5661 5658 5655 5652 5648 5645 5642 5638 5635 5631 5627 5624 5620 5617 5614 5612 5609 5607 5605